Weather History for Columbia Airport, CA

Change the Weather History Date:

Sunday, October 6, 2013

  Actual Average (KMOD) Record (KMOD)
Temperature  
Mean Temperature 62 °F -  
Max Temperature 82 °F 83 °F 97 °F (1987)
Min Temperature 42 °F 55 °F 42 °F (1969)
Degree Days  
Heating Degree Days 3 1  
Month to date heating degree days 3  
Since 1 July heating degree days 6  
Cooling Degree Days 0 5  
Month to date cooling degree days 32  
Year to date cooling degree days 1644  
Growing Degree Days 12 (Base 50)    
Moisture  
Dew Point 26 °F    
Average Humidity 32    
Maximum Humidity 53    
Minimum Humidity 10    
Precipitation  
Precipitation 0.00 in 0.01 in 0.14 in (2011)
Month to date precipitation 0.08  
Year to date precipitation 9.11  
Since 1 July precipitation 0.36  
Snow  
Snow 0.00 in - 0.00 in (2002)
Month to date snowfall  
Since 1 July snowfall  
Since 1 September snowfall  
Snow Depth -    
Sea Level Pressure  
Sea Level Pressure 30.14 in    
Wind  
Wind Speed 1 mph (WSW)    
Max Wind Speed 8 mph    
Max Gust Speed -    
Visibility 10 miles    
Events      
T = Trace of Precipitation, MM = Missing Value Source: NWS Daily Summary

Daily Weather History Graph

Daily Weather History Graph

Search for Another Location

Airport:

Trip Planner

Search our weather history database for the weather conditions in past years. The results will help you decide how hot, cold, wet, or windy it might be!

Date:

Astronomy

Oct. 06, 2013 Rise Set
Actual Time 7:02 AM PDT 6:36 PM PDT
Civil Twilight 6:35 AM PDT 7:02 PM PDT
Nautical Twilight 6:05 AM PDT 7:33 PM PDT
Astronomical Twilight 5:34 AM PDT 8:03 PM PDT
Moon 8:49 AM PDT (10/6) 7:42 PM PDT (10/6)
Length of Visible Light 12h 27m
Length of Day
11h 34m
Waxing Crescent, 4% of the Moon is Illuminated
Oct 6
Waxing Crescent
Oct 11
First Quarter
Oct 18
Full
Oct 26
Last Quarter
Nov 3
New

Hourly Weather History & Observations

Time (PDT) Temp. Dew Point Humidity Pressure Visibility Wind Dir Wind Speed Gust Speed Precip Events Conditions
12:15 AM 48.2 °F 26.6 °F 43% 30.19 in 10.0 mi Calm Calm - N/A   Clear
12:35 AM 48.2 °F 26.6 °F 43% 30.18 in 10.0 mi Calm Calm - N/A   Clear
12:55 AM 46.4 °F 26.6 °F 46% 30.18 in 10.0 mi Calm Calm - N/A   Clear
1:15 AM 46.4 °F 26.6 °F 46% 30.18 in 10.0 mi Calm Calm - N/A   Clear
1:35 AM 46.4 °F 26.6 °F 46% 30.18 in 10.0 mi Calm Calm - N/A   Clear
1:55 AM 46.4 °F 26.6 °F 46% 30.18 in 10.0 mi Calm Calm - N/A   Clear
2:15 AM 46.4 °F 26.6 °F 46% 30.18 in 10.0 mi Calm Calm - N/A   Clear
2:35 AM 46.4 °F 26.6 °F 46% 30.17 in 10.0 mi Calm Calm - N/A   Clear
2:55 AM 46.4 °F 26.6 °F 46% 30.17 in 10.0 mi Calm Calm - N/A   Clear
3:15 AM 44.6 °F 26.6 °F 49% 30.16 in 10.0 mi Calm Calm - N/A   Clear
3:35 AM 44.6 °F 26.6 °F 49% 30.16 in 10.0 mi Calm Calm - N/A   Clear
3:55 AM 44.6 °F 26.6 °F 49% 30.16 in 10.0 mi Calm Calm - N/A   Clear
4:15 AM 44.6 °F 26.6 °F 49% 30.15 in 10.0 mi Calm Calm - N/A   Clear
4:35 AM 44.6 °F 26.6 °F 49% 30.15 in 10.0 mi Calm Calm - N/A   Clear
4:55 AM 44.6 °F 26.6 °F 49% 30.15 in 10.0 mi Calm Calm - N/A   Clear
5:15 AM 44.6 °F 26.6 °F 49% 30.15 in 10.0 mi Calm Calm - N/A   Clear
5:35 AM 42.8 °F 26.6 °F 53% 30.15 in 10.0 mi Calm Calm - N/A   Clear
5:55 AM 42.8 °F 26.6 °F 53% 30.16 in 10.0 mi Calm Calm - N/A   Clear
6:15 AM 44.6 °F 26.6 °F 49% 30.16 in 10.0 mi Calm Calm - N/A   Clear
6:35 AM 44.6 °F 26.6 °F 49% 30.16 in 10.0 mi Calm Calm - N/A   Clear
6:55 AM 42.8 °F 26.6 °F 53% 30.17 in 10.0 mi Calm Calm - N/A   Clear
7:15 AM 44.6 °F 26.6 °F 49% 30.17 in 10.0 mi Calm Calm - N/A   Clear
7:35 AM 44.6 °F 26.6 °F 49% 30.17 in 10.0 mi Calm Calm - N/A   Clear
7:55 AM 46.4 °F 28.4 °F 50% 30.18 in 10.0 mi Calm Calm - N/A   Clear
8:15 AM 50.0 °F 28.4 °F 43% 30.18 in 10.0 mi Calm Calm - N/A   Clear
8:35 AM 55.4 °F 30.2 °F 38% 30.19 in 10.0 mi Calm Calm - N/A   Clear
8:55 AM 59.0 °F 32.0 °F 36% 30.19 in 10.0 mi Calm Calm - N/A   Clear
9:15 AM 64.4 °F 33.8 °F 32% 30.19 in 10.0 mi Calm Calm - N/A   Clear
9:35 AM 69.8 °F 32.0 °F 25% 30.19 in 10.0 mi Calm Calm - N/A   Clear
9:55 AM 71.6 °F 24.8 °F 17% 30.18 in 10.0 mi Calm Calm - N/A   Clear
10:15 AM 75.2 °F 24.8 °F 15% 30.18 in 10.0 mi Calm Calm - N/A   Clear
10:35 AM 77.0 °F 19.4 °F 12% 30.18 in 10.0 mi Calm Calm - N/A   Clear
10:55 AM 77.0 °F 21.2 °F 12% 30.18 in 10.0 mi SSW 3.5 mph - N/A   Clear
11:15 AM 77.0 °F 21.2 °F 12% 30.17 in 10.0 mi SSW 3.5 mph - N/A   Clear
11:35 AM 78.8 °F 21.2 °F 12% 30.17 in 10.0 mi WSW 6.9 mph - N/A   Clear
11:55 AM 80.6 °F 23.0 °F 12% 30.16 in 10.0 mi SSW 4.6 mph - N/A   Clear
12:15 PM 80.6 °F 21.2 °F 11% 30.16 in 10.0 mi West 8.1 mph - N/A   Clear
12:35 PM 80.6 °F 19.4 °F 10% 30.16 in 10.0 mi West 8.1 mph - N/A   Clear
12:55 PM 80.6 °F 21.2 °F 11% 30.15 in 10.0 mi West 4.6 mph - N/A   Clear
1:15 PM 80.6 °F 21.2 °F 11% 30.15 in 10.0 mi West 5.8 mph - N/A   Clear
1:35 PM 80.6 °F 21.2 °F 11% 30.14 in 10.0 mi SW 5.8 mph - N/A   Clear
1:55 PM 82.4 °F 19.4 °F 10% 30.13 in 10.0 mi WSW 5.8 mph - N/A   Clear
2:15 PM 82.4 °F 21.2 °F 10% 30.13 in 10.0 mi SSW 3.5 mph - N/A   Clear
2:35 PM 80.6 °F 21.2 °F 11% 30.12 in 10.0 mi SW 5.8 mph - N/A   Clear
2:55 PM 80.6 °F 23.0 °F 12% 30.12 in 10.0 mi WSW 8.1 mph - N/A   Clear
3:15 PM 80.6 °F 23.0 °F 12% 30.12 in 10.0 mi WSW 5.8 mph - N/A   Clear
3:35 PM 80.6 °F 24.8 °F 13% 30.11 in 10.0 mi WSW 3.5 mph - N/A   Clear
3:55 PM 80.6 °F 24.8 °F 13% 30.10 in 10.0 mi WSW 6.9 mph - N/A   Clear
4:15 PM 78.8 °F 23.0 °F 13% 30.10 in 10.0 mi WSW 3.5 mph - N/A   Clear
4:35 PM 80.6 °F 24.8 °F 13% 30.10 in 10.0 mi WSW 6.9 mph - N/A   Clear
4:55 PM 78.8 °F 23.0 °F 13% 30.09 in 10.0 mi WSW 4.6 mph - N/A   Clear
5:15 PM 77.0 °F 24.8 °F 14% 30.09 in 10.0 mi Calm Calm - N/A   Clear
5:35 PM 77.0 °F 24.8 °F 14% 30.09 in 10.0 mi Calm Calm - N/A   Clear
5:55 PM 75.2 °F 26.6 °F 17% 30.09 in 10.0 mi Calm Calm - N/A   Clear
6:15 PM 71.6 °F 26.6 °F 19% 30.09 in 10.0 mi Calm Calm - N/A   Clear
6:35 PM 66.2 °F 32.0 °F 28% 30.09 in 10.0 mi Calm Calm - N/A   Clear
6:55 PM 66.2 °F 32.0 °F 28% 30.09 in 10.0 mi Calm Calm - N/A   Clear
7:15 PM 62.6 °F 32.0 °F 32% 30.09 in 10.0 mi Calm Calm - N/A   Clear
7:35 PM 59.0 °F 32.0 °F 36% 30.09 in 10.0 mi Calm Calm - N/A   Clear
7:55 PM 59.0 °F 32.0 °F 36% 30.09 in 10.0 mi Calm Calm - N/A   Clear
8:15 PM 57.2 °F 32.0 °F 38% 30.08 in 10.0 mi Calm Calm - N/A   Clear
8:35 PM 55.4 °F 30.2 °F 38% 30.08 in 10.0 mi Calm Calm - N/A   Clear
8:55 PM 55.4 °F 32.0 °F 41% 30.08 in 10.0 mi Calm Calm - N/A   Clear
9:15 PM 55.4 °F 30.2 °F 38% 30.08 in 10.0 mi Calm Calm - N/A   Clear
9:35 PM 53.6 °F 28.4 °F 38% 30.08 in 10.0 mi Calm Calm - N/A   Clear
9:55 PM 53.6 °F 28.4 °F 38% 30.08 in 10.0 mi Calm Calm - N/A   Clear
10:15 PM 51.8 °F 30.2 °F 44% 30.08 in 10.0 mi Calm Calm - N/A   Clear
10:35 PM 51.8 °F 30.2 °F 44% 30.08 in 10.0 mi Calm Calm - N/A   Clear
10:55 PM 50.0 °F 28.4 °F 43% 30.07 in 10.0 mi Calm Calm - N/A   Clear
11:15 PM 50.0 °F 28.4 °F 43% 30.07 in 10.0 mi Calm Calm - N/A   Clear
11:35 PM 50.0 °F 28.4 °F 43% 30.07 in 10.0 mi Calm Calm - N/A   Clear
11:55 PM 50.0 °F 28.4 °F 43% 30.07 in 10.0 mi Calm Calm - N/A   Clear